Location: Biharia
(46.4333°N, 22.8000°E)
Time: 01:47:16
(UTC+00:00)

Cosmos 1953 - Pass Details

Date: 16 October 2021
Orbit: 537 x 557 km, 82.5° (Epoch: 02 December)

Event Time Altitude Azimuth Distance (km) Brightness Sun altitude
Rises 16:34:27 0° 170° (S) 2,720 5.8 -10.1°
Reaches altitude 10° 16:36:40 10° 164° (SSE) 1,833 4.8 -10.5°
Maximum altitude 16:40:29 42° 93° (E) 804 2.7 -11.1°
Drops below altitude 10° 16:44:21 10° 22° (NNE) 1,854 4.8 -11.8°
Sets 16:46:36 0° 16° (NNE) 2,755 5.7 -12.2°
